STARLINK-3967 (52636 NORAD) Tracking and Keplerian Element Data

This shows tracking and keplerian element data for the satellite.

Feedback or suggestion? Click here.




ElementValue
Catalog52636
NameSTARLINK-3967
Epoch Orbit130
Epoch Day192.91667824
Epoch Year2022
RAAN153.1114
Inclination53.2176
Eccentricity0.0001228
Argument of Perigee78.1484
Mean Anonmoly123.4246
Mean Motion15.49950178
Decay Rate-0.00102628
L11 52636U 22052AQ 22192.91667824 -.00102628 00000+0 -18198-2 0 9991
L22 52636 53.2176 153.1114 0001228 78.1484 123.4246 15.49950178 1304

Live tracking and technical data element details for STARLINK-3967 (NORAD 52636). STARLINK-3967 can be tracked NOW for your location showing map with azimuth and elevation plus other details from your city location.

Track the satellite on the map from your city or location and see movement details for azimuth, elevation, latitude, longitude, range, height, and movement on the map or in text.







IsCatalogInMostPopularTable: catalog: 52636, numindb: 6
Update: records affected: 1



GetName: 52636 STARLINK-3967

Hit Count: updated at: Sun, 14 Aug 2022 00:08:36 GMT